sat.trackr.live / text

‹ back to catalog

STARLINK-6030

NORAD 56107 · 2023-046Q

PAYLOAD ACTIVE UNKNOWN

§ Identity

Operator
Country
US
Launch date
2023-03-29
Launch site
AFETR
Launch vehicle
Mass (kg)
RCS (m²)

Purposes: comms

External: N2YO · Heavens-Above · Gunter

§ Orbital elements

Epoch: 2026-05-24T23:14:42.069408Z

Period
94.27 min
Inclination
43.0058°
Eccentricity
0.0001264
Mean motion
15.27574623 rev/d
Perigee alt
482.2 km
Apogee alt
483.9 km
Semi-major
6,861.2 km
B*
1.3902e-5
RAAN
91.0818°
Arg perigee
278.6964°
Mean anomaly
81.3744°
Rev number
17,369

§ Raw data

STARLINK-60301 56107U 23046Q   26144.96854247  .00000120  00000+0  13902-4 0  99972 56107  43.0058  91.0818 0001264 278.6964  81.3744 15.27574623173698

JSON: /api/v1/satellites/56107 · /tle

For live sub-satellite position, see the globe view (requires WebGL).

§ Visibility from observer

Set your observer location to see the next 7 days of passes ≥ 10°. The values pass through the URL so the page stays shareable.

No JS? Fill the form by hand. The geolocation button needs JavaScript.